Location: Unspecified
(0.0000°N, 0.0000°E)
Time: 23:41:25
(UTC+00:00)

Daily predictions for brighter satellites

Satellite Brightness Start Highest point End
(mag) Time Altitude Azimuth Time Altitude Azimuth Time Altitude Azimuth
Cosmos 2208 Rocket 4.4 18:18:36 10° S 18:23:28 41° ESE 18:28:24 10° NNE
Meteor 1-18 Rocket 4.2 18:24:05 10° N 18:29:48 74° E 18:35:26 10° S
Cosmos 1544 Rocket 4.4 18:28:55 10° SSE 18:32:36 27° E 18:36:16 10° NE
Okean 1 Rocket 4.5 18:30:09 10° SSW 18:34:22 44° W 18:38:33 10° NNW
Cosmos 44 Rocket 3.1 18:33:16 10° NNW 18:38:03 76° ENE 18:42:41 10° SSE
Cosmos 1536 2.7 18:34:40 10° S 18:38:39 73° E 18:42:36 10° N
Meteor 1-29 3.2 18:35:30 10° N 18:38:58 77° WNW 18:42:29 10° SSW
Blok-2BL 4.2 18:35:22 10° N 18:39:55 47° ENE 18:43:30 10° SE
ARIANE 44L R/B 4.3 18:36:56 10° WSW 18:40:50 65° S 18:54:08 14° E
Cosmos 1570 Rocket 4.0 18:35:38 10° S 18:40:59 77° ESE 18:46:17 10° NNE
Spelda 4.2 18:39:02 10° WSW 18:41:25 44° S 18:45:54 13° ESE
Meteor 1-11 Rocket 4.3 18:35:57 10° SSW 18:41:39 65° W 18:47:12 10° N
ISS -2.2 18:40:36 10° NW 18:43:42 42° SW 18:46:48 10° SSE
ATLAS 2AS CENTAUR R/B 3.1 18:37:24 10° N 18:44:26 45° ENE 18:50:50 10° SE
ARIANE 5 R/B 4.1 18:40:55 10° WSW 18:46:33 60° SSE 19:15:17 19° E
Cosmos 1727 Rocket 4.0 18:40:59 10° N 18:47:15 71° E 18:53:35 10° S
Cosmos 44 3.8 18:44:47 10° N 18:48:52 33° ENE 18:51:51 15° SE
Meteor 2-21 4.4 18:44:12 10° S 18:50:25 83° E 18:56:37 10° N
ARIANE 5 DEB (SYLDA) 4.3 18:37:15 10° W 18:50:38 69° N 18:54:05 16° ENE
Meteor 2-21 Rocket 4.5 18:44:32 10° S 18:50:40 64° E 18:56:48 10° NNE
COS B Rocket 3.7 18:49:13 10° NNW 18:51:26 37° W 18:53:51 10° SSW
Delta 202 3.9 18:50:08 10° WNW 18:55:29 67° NNE 19:00:16 19° E
Cosmos 1812 3.4 18:52:00 10° NNW 18:55:47 56° W 18:59:35 10° S
Abrixas 3.3 18:54:07 10° NW 18:57:02 48° SW 18:59:23 14° SSE
GPS 2-14 Rocket1 2.8 18:53:49 10° WSW 18:57:57 64° SSE 19:00:18 23° E
NOAA 12 4.0 18:57:14 10° SSE 19:02:28 65° ENE 19:07:38 10° N
Cosmos 1484 Rocket 4.2 19:00:58 10° S 19:04:35 39° WSW 19:08:07 10° NNW
ARIANE 5 R/B 3.5 19:02:58 10° W 19:07:19 82° S 19:19:05 21° E
Cosmos 1697 Rocket 3.1 19:02:06 10° S 19:07:20 38° ESE 19:12:32 10° NE
GPS 2-17 Rocket1 3.0 19:04:13 10° WSW 19:08:33 73° NNW 19:10:59 25° ENE
Meteor 2-14 Rocket 4.4 19:02:38 10° S 19:08:48 84° E 19:14:57 10° N
Cosmos 1833 4.2 19:03:26 10° N 19:09:04 62° ENE 19:14:32 11° SSE
Okean 1 4.5 19:06:26 10° NNW 19:10:15 45° W 19:14:05 10° SSW
Cosmos 2219 4.1 19:09:18 10° NNE 19:13:58 27° ENE 19:14:08 27° ENE
Meteor 1-12 Rocket 4.4 19:10:24 10° SSE 19:15:46 46° E 19:21:10 10° NNE
Okean 1-7 Rocket 3.6 19:11:41 10° N 19:16:04 78° W 19:20:30 10° S
Intelsat 5-2 Rocket 2.5 19:12:12 10° WSW 19:17:49 68° SSE 19:18:20 55° ESE
GEOS 3 Rocket 4.4 19:21:51 31° SE 19:21:51 31° SE 19:25:46 10° S
Sylda 4400 3.3 19:19:53 10° WNW 19:21:47 38° N 19:21:47 38° N
Helios 1A 2.8 19:21:04 23° SSE 19:23:34 79° ENE 19:27:42 10° N
FREGAT/IRIS 3.9 19:21:15 10° S 19:24:14 41° W 19:27:13 10° NNW
ARIANE 5 DEB (SYLDA) 4.1 19:22:12 10° WNW 19:25:44 45° N 19:28:05 28° ENE
ALOS 3.7 19:28:17 22° NE 19:28:17 22° NE 19:30:21 10° NNE
METEOR-M 4.0 19:23:13 10° SSE 19:28:35 85° ENE 19:33:55 10° N
Meteor 2-4 Rocket 3.9 19:22:55 10° N 19:28:38 51° E 19:30:36 36° SE
Cosmos 1980 Rocket 3.7 19:24:15 10° S 19:25:57 19° SSE 19:25:57 19° SSE
GPS 2-04 Rocket1 3.1 19:27:07 10° WNW 19:30:53 54° SW 19:31:25 49° S
Cosmos 1934 Rocket 4.4 19:25:19 10° SSW 19:31:17 63° W 19:37:18 10° N
BLOCK DM-SL R/B 4.1 19:28:07 10° W 19:33:06 90° S 19:39:10 32° E
Cosmos 968 Rocket 3.8 19:29:21 10° N 19:33:35 44° NE 19:33:35 44° NE
Resurs 1-3 3.4 19:35:12 58° SSE 19:36:02 84° ENE 19:40:24 10° N
Cosmos 1455 Rocket 3.9 19:32:20 10° SSW 19:36:30 48° W 19:40:39 10° NNW
FengYun 1-2 T 4.1 19:34:50 34° SSE 19:37:20 70° ENE 19:42:56 10° N
Cosmos 1000 Rocket 4.4 19:32:29 10° N 19:38:47 82° E 19:45:04 10° S
Cosmos 468 Rocket 3.8 19:38:19 10° S 19:43:30 81° ESE 19:48:37 10° NNE
Meteor 1-23 Rocket 4.1 19:41:57 10° N 19:47:38 75° E 19:48:16 67° SE
Centaur AC-69 3.9 19:40:24 10° W 19:47:58 40° SSW 19:48:02 40° SSW
Resurs 01 Rocket 2.9 19:49:26 16° SSW 19:52:31 38° WSW 19:56:37 10° NNW
ARIANE 5 R/B 4.2 19:50:52 10° W 19:51:19 13° W 19:51:19 13° W
GPS 2-12 Rocket1 3.5 19:50:24 10° WNW 19:54:21 61° WNW 19:54:21 61° WNW
Cosmos 1025 Rocket 3.9 19:51:04 10° NNW 19:55:12 48° W 19:55:32 47° WSW
FENGYUN 3A 4.3 20:00:29 43° N 20:00:29 43° N 20:04:03 10° N
Ariane H10-3 3.4 19:32:52 10° W 20:06:50 73° S 20:07:27 69° SE
ARIANE 5 R/B 3.8 19:59:55 10° W 20:12:07 62° SSW 20:12:07 62° SSW
Maqsat-H 4.4 14:39:52 10° W 20:43:59 66° N 20:46:14 59° NE
CZ-3B DEB 4.3 20:24:01 10° NNW 20:48:54 67° NE 20:48:54 67° NE
